TimeCST,TemperatureF,Dew PointF,Humidity,Sea Level PressureIn,VisibilityMPH,Wind Direction,Wind SpeedMPH,Gust SpeedMPH,PrecipitationIn,Events,Conditions,WindDirDegrees,DateUTC
12:15 AM,42.8,33.8,70,30.27,10.0,NW,9.2,-,N/A,,Clear,320,2013-11-10 06:15:00
12:35 AM,42.8,33.8,70,30.27,10.0,NW,10.4,-,N/A,,Clear,320,2013-11-10 06:35:00
12:55 AM,42.8,33.8,70,30.27,10.0,NW,10.4,-,N/A,,Clear,320,2013-11-10 06:55:00
1:15 AM,42.8,32.0,66,30.28,10.0,NW,11.5,-,N/A,,Clear,320,2013-11-10 07:15:00
1:35 AM,41.0,32.0,70,30.29,10.0,NW,9.2,-,N/A,,Clear,320,2013-11-10 07:35:00
1:55 AM,41.0,32.0,70,30.30,10.0,NW,9.2,-,N/A,,Clear,310,2013-11-10 07:55:00
2:15 AM,39.2,30.2,70,30.30,10.0,NW,8.1,-,N/A,,Clear,310,2013-11-10 08:15:00
2:35 AM,39.2,30.2,70,30.30,10.0,WNW,8.1,-,N/A,,Clear,290,2013-11-10 08:35:00
2:55 AM,37.4,30.2,75,30.31,10.0,West,6.9,-,N/A,,Clear,280,2013-11-10 08:55:00
3:15 AM,37.4,30.2,75,30.31,10.0,WNW,8.1,-,N/A,,Clear,290,2013-11-10 09:15:00
3:35 AM,37.4,30.2,75,30.32,10.0,WNW,8.1,-,N/A,,Clear,290,2013-11-10 09:35:00
3:55 AM,35.6,30.2,81,30.33,10.0,WNW,6.9,-,N/A,,Clear,290,2013-11-10 09:55:00
4:15 AM,37.4,28.4,70,30.33,10.0,NW,8.1,-,N/A,,Clear,310,2013-11-10 10:15:00
4:35 AM,35.6,28.4,75,30.34,10.0,WNW,5.8,-,N/A,,Clear,300,2013-11-10 10:35:00
4:55 AM,35.6,28.4,75,30.35,10.0,NW,8.1,-,N/A,,Clear,310,2013-11-10 10:55:00
5:15 AM,35.6,28.4,75,30.36,10.0,WNW,6.9,-,N/A,,Clear,300,2013-11-10 11:15:00
5:35 AM,33.8,28.4,81,30.37,10.0,WNW,6.9,-,N/A,,Clear,290,2013-11-10 11:35:00
5:55 AM,32.0,28.4,87,30.38,10.0,WNW,5.8,-,N/A,,Clear,300,2013-11-10 11:55:00
6:15 AM,33.8,28.4,81,30.39,10.0,WNW,5.8,-,N/A,,Clear,290,2013-11-10 12:15:00
6:35 AM,33.8,28.4,81,30.39,10.0,WNW,4.6,-,N/A,,Clear,300,2013-11-10 12:35:00
6:55 AM,32.0,28.4,87,30.40,10.0,WNW,6.9,-,N/A,,Clear,290,2013-11-10 12:55:00
7:15 AM,32.0,28.4,87,30.41,10.0,West,4.6,-,N/A,,Clear,280,2013-11-10 13:15:00
7:35 AM,33.8,28.4,81,30.42,10.0,WNW,4.6,-,N/A,,Clear,300,2013-11-10 13:35:00
7:55 AM,35.6,28.4,75,30.42,10.0,NW,6.9,-,N/A,,Clear,310,2013-11-10 13:55:00
8:15 AM,35.6,28.4,75,30.43,10.0,NW,6.9,-,N/A,,Clear,320,2013-11-10 14:15:00
8:35 AM,37.4,28.4,70,30.43,10.0,Variable,5.8,12.7,N/A,,Clear,0,2013-11-10 14:35:00
8:55 AM,39.2,28.4,65,30.43,10.0,NW,5.8,-,N/A,,Clear,320,2013-11-10 14:55:00
9:15 AM,39.2,28.4,65,30.43,10.0,North,9.2,-,N/A,,Clear,350,2013-11-10 15:15:00
9:35 AM,41.0,28.4,61,30.44,10.0,Variable,5.8,12.7,N/A,,Clear,0,2013-11-10 15:35:00
9:55 AM,41.0,28.4,61,30.43,10.0,Calm,Calm,-,N/A,,Clear,0,2013-11-10 15:55:00
10:15 AM,42.8,30.2,61,30.43,10.0,North,8.1,-,N/A,,Clear,360,2013-11-10 16:15:00
10:35 AM,41.0,28.4,61,30.43,10.0,Calm,Calm,11.5,N/A,,Clear,0,2013-11-10 16:35:00
10:55 AM,42.8,30.2,61,30.43,10.0,Variable,4.6,-,N/A,,Clear,0,2013-11-10 16:55:00
11:15 AM,42.8,28.4,57,30.42,10.0,Calm,Calm,-,N/A,,Clear,0,2013-11-10 17:15:00
11:35 AM,42.8,28.4,57,30.41,10.0,Calm,Calm,-,N/A,,Clear,0,2013-11-10 17:35:00
11:55 AM,44.6,30.2,57,30.40,10.0,West,3.5,-,N/A,,Clear,260,2013-11-10 17:55:00
12:15 PM,44.6,28.4,53,30.39,10.0,Calm,Calm,-,N/A,,Clear,0,2013-11-10 18:15:00
12:35 PM,46.4,28.4,50,30.37,10.0,Calm,Calm,-,N/A,,Clear,0,2013-11-10 18:35:00
12:55 PM,46.4,28.4,50,30.36,9.0,Variable,3.5,-,N/A,,Clear,0,2013-11-10 18:55:00
1:15 PM,48.2,30.2,50,30.36,10.0,Calm,Calm,-,N/A,,Clear,0,2013-11-10 19:15:00
1:35 PM,48.2,30.2,50,30.35,9.0,Variable,3.5,-,N/A,,Clear,0,2013-11-10 19:35:00
1:55 PM,48.2,30.2,50,30.34,10.0,Calm,Calm,-,N/A,,Clear,0,2013-11-10 19:55:00
2:15 PM,48.2,30.2,50,30.34,10.0,SW,6.9,-,N/A,,Clear,220,2013-11-10 20:15:00
2:35 PM,48.2,30.2,50,30.33,10.0,SW,5.8,-,N/A,,Clear,230,2013-11-10 20:35:00
2:55 PM,48.2,30.2,50,30.33,9.0,SSW,5.8,-,N/A,,Clear,210,2013-11-10 20:55:00
3:15 PM,48.2,30.2,50,30.32,-9999.0,SSW,6.9,-,N/A,,Mostly Cloudy,210,2013-11-10 21:15:00
3:35 PM,48.2,30.2,50,30.32,10.0,South,6.9,-,N/A,,Mostly Cloudy,190,2013-11-10 21:35:00
3:55 PM,48.2,30.2,50,30.32,10.0,SSW,4.6,-,N/A,,Partly Cloudy,210,2013-11-10 21:55:00
4:15 PM,46.4,30.2,53,30.31,10.0,South,4.6,-,N/A,,Clear,180,2013-11-10 22:15:00
4:35 PM,46.4,28.4,50,30.31,10.0,South,3.5,-,N/A,,Clear,180,2013-11-10 22:35:00
4:55 PM,46.4,28.4,50,30.31,10.0,South,3.5,-,N/A,,Clear,170,2013-11-10 22:55:00
5:15 PM,44.6,30.2,57,30.30,10.0,SSE,3.5,-,N/A,,Clear,160,2013-11-10 23:15:00
5:35 PM,42.8,30.2,61,30.30,10.0,South,4.6,-,N/A,,Partly Cloudy,170,2013-11-10 23:35:00
5:55 PM,42.8,30.2,61,30.30,10.0,South,4.6,-,N/A,,Partly Cloudy,170,2013-11-10 23:55:00
6:15 PM,42.8,30.2,61,30.29,10.0,SSE,4.6,-,N/A,,Clear,160,2013-11-11 00:15:00
6:35 PM,42.8,30.2,61,30.29,10.0,SSE,3.5,-,N/A,,Clear,160,2013-11-11 00:35:00
6:55 PM,39.2,30.2,70,30.29,10.0,SSE,3.5,-,N/A,,Clear,150,2013-11-11 00:55:00
7:15 PM,39.2,30.2,70,30.29,10.0,SSE,3.5,-,N/A,,Clear,160,2013-11-11 01:15:00
7:35 PM,39.2,30.2,70,30.29,10.0,SSE,4.6,-,N/A,,Clear,160,2013-11-11 01:35:00
7:55 PM,37.4,30.2,75,30.28,10.0,South,4.6,-,N/A,,Clear,180,2013-11-11 01:55:00
8:15 PM,41.0,30.2,65,30.28,10.0,South,4.6,-,N/A,,Scattered Clouds,190,2013-11-11 02:15:00
8:35 PM,41.0,30.2,65,30.27,10.0,SSE,4.6,-,N/A,,Mostly Cloudy,160,2013-11-11 02:35:00
8:55 PM,42.8,32.0,66,30.26,10.0,SSE,4.6,-,N/A,,Overcast,160,2013-11-11 02:55:00
9:15 PM,42.8,30.2,61,30.26,10.0,Calm,Calm,-,N/A,,Overcast,0,2013-11-11 03:15:00
9:35 PM,42.8,32.0,66,30.26,10.0,South,3.5,-,N/A,,Overcast,190,2013-11-11 03:35:00
9:55 PM,44.6,32.0,61,30.25,10.0,South,3.5,-,N/A,,Overcast,180,2013-11-11 03:55:00
10:15 PM,44.6,32.0,61,30.25,10.0,SSW,4.6,-,N/A,,Overcast,200,2013-11-11 04:15:00
10:35 PM,44.6,32.0,61,30.24,10.0,SSW,4.6,-,N/A,,Overcast,200,2013-11-11 04:35:00
10:55 PM,44.6,32.0,61,30.23,10.0,SSW,5.8,-,N/A,,Overcast,200,2013-11-11 04:55:00
11:15 PM,44.6,32.0,61,30.23,10.0,SSW,9.2,-,N/A,,Overcast,200,2013-11-11 05:15:00
11:35 PM,46.4,32.0,57,30.22,10.0,SSW,10.4,-,N/A,,Overcast,200,2013-11-11 05:35:00
11:55 PM,46.4,32.0,57,30.21,10.0,South,11.5,-,N/A,,Overcast,190,2013-11-11 05:55:00